Time,TemperatureF,DewpointF,PressureIn,WindDirection,WindDirectionDegrees,WindSpeedMPH,WindSpeedGustMPH,Humidity,HourlyPrecipIn,Conditions,Clouds,dailyrainin,SoftwareType,DateUTC
2013-06-12 00:02:00,69.1,64.8,29.95,South,180,0.0,0.0,86,0.00,,,0.00,meteohub,2013-06-12 04:02:00,
2013-06-12 00:07:00,69.3,64.9,29.95,South,180,0.0,0.0,86,0.00,,,0.00,meteohub,2013-06-12 04:07:00,
2013-06-12 00:12:00,69.1,64.8,29.95,South,180,0.0,2.0,86,0.00,,,0.00,meteohub,2013-06-12 04:12:00,
2013-06-12 00:17:00,69.1,64.8,29.95,South,180,0.0,2.0,86,0.00,,,0.00,meteohub,2013-06-12 04:17:00,
2013-06-12 00:22:00,69.1,64.8,29.95,South,180,0.0,2.0,86,0.00,,,0.00,meteohub,2013-06-12 04:22:00,
2013-06-12 00:27:00,68.9,64.6,29.95,South,180,0.0,0.0,86,0.00,,,0.00,meteohub,2013-06-12 04:27:00,
2013-06-12 00:32:00,68.9,64.9,29.95,WSW,248,0.0,0.0,87,0.00,,,0.00,meteohub,2013-06-12 04:32:00,
2013-06-12 00:37:00,69.1,64.8,29.95,WSW,248,0.0,0.0,86,0.00,,,0.00,meteohub,2013-06-12 04:37:00,
2013-06-12 00:42:00,68.9,64.6,29.95,WSW,248,0.0,2.0,86,0.00,,,0.00,meteohub,2013-06-12 04:42:00,
2013-06-12 00:47:00,68.7,64.4,29.95,WSW,248,0.0,2.0,86,0.00,,,0.00,meteohub,2013-06-12 04:47:00,
2013-06-12 00:52:00,68.7,64.4,29.95,WSW,248,0.0,0.0,86,0.00,,,0.00,meteohub,2013-06-12 04:52:00,
2013-06-12 00:57:00,68.5,64.2,29.95,WSW,248,0.0,0.0,86,0.00,,,0.00,meteohub,2013-06-12 04:57:00,
2013-06-12 01:02:00,68.5,64.2,29.95,WSW,248,0.0,0.0,86,0.00,,,0.00,meteohub,2013-06-12 05:02:00,
2013-06-12 01:07:00,68.4,64.4,29.95,WSW,248,0.0,0.0,87,0.00,,,0.00,meteohub,2013-06-12 05:07:00,
2013-06-12 01:12:00,68.2,64.2,29.95,WSW,248,0.0,0.0,87,0.00,,,0.00,meteohub,2013-06-12 05:12:00,
2013-06-12 01:17:00,68.0,64.4,29.95,WSW,248,0.0,0.0,88,0.00,,,0.00,meteohub,2013-06-12 05:17:00,
2013-06-12 01:22:00,68.0,64.4,29.95,WSW,248,0.0,0.0,88,0.00,,,0.00,meteohub,2013-06-12 05:22:00,
2013-06-12 01:27:00,68.0,64.6,29.95,WSW,248,0.0,0.0,89,0.00,,,0.00,meteohub,2013-06-12 05:27:00,
2013-06-12 01:32:00,67.8,64.4,29.95,WSW,248,0.0,0.0,89,0.00,,,0.00,meteohub,2013-06-12 05:32:00,
2013-06-12 01:37:00,67.6,64.6,29.95,WSW,248,0.0,0.0,90,0.00,,,0.00,meteohub,2013-06-12 05:37:00,
2013-06-12 01:42:00,67.6,64.6,29.95,WSW,248,0.0,0.0,90,0.00,,,0.00,meteohub,2013-06-12 05:42:00,
2013-06-12 01:47:00,67.6,64.9,29.95,WSW,248,0.0,0.0,91,0.00,,,0.00,meteohub,2013-06-12 05:47:00,
2013-06-12 01:52:00,67.8,65.1,29.95,WSW,248,0.0,0.0,91,0.00,,,0.00,meteohub,2013-06-12 05:52:00,
2013-06-12 01:57:00,67.6,64.9,29.95,WSW,248,0.0,0.0,91,0.00,,,0.00,meteohub,2013-06-12 05:57:00,
2013-06-12 02:02:00,68.0,64.9,29.95,WSW,248,3.0,3.0,90,0.00,,,0.00,meteohub,2013-06-12 06:02:00,
2013-06-12 02:07:00,68.2,65.1,29.95,WSW,248,0.0,3.0,90,0.00,,,0.00,meteohub,2013-06-12 06:07:00,
2013-06-12 02:12:00,68.2,64.8,29.95,WSW,248,0.0,3.0,89,0.00,,,0.00,meteohub,2013-06-12 06:12:00,
2013-06-12 02:17:00,68.2,64.8,29.95,WSW,248,0.0,3.0,89,0.00,,,0.00,meteohub,2013-06-12 06:17:00,
2013-06-12 02:22:00,67.8,64.4,29.95,WSW,248,0.0,3.0,89,0.00,,,0.00,meteohub,2013-06-12 06:22:00,
2013-06-12 02:27:00,67.6,64.2,29.95,WSW,248,0.0,2.0,89,0.00,,,0.00,meteohub,2013-06-12 06:27:00,
2013-06-12 02:32:00,67.5,64.0,29.95,WSW,248,0.0,0.0,89,0.00,,,0.00,meteohub,2013-06-12 06:32:00,
2013-06-12 02:37:00,67.3,64.2,29.95,WSW,248,0.0,0.0,90,0.00,,,0.00,meteohub,2013-06-12 06:37:00,
2013-06-12 02:42:00,66.9,63.9,29.95,WSW,248,0.0,0.0,90,0.00,,,0.00,meteohub,2013-06-12 06:42:00,
2013-06-12 02:47:00,66.9,64.2,29.95,WSW,248,0.0,0.0,91,0.00,,,0.00,meteohub,2013-06-12 06:47:00,
2013-06-12 02:52:00,66.7,64.0,29.95,WSW,248,0.0,0.0,91,0.00,,,0.00,meteohub,2013-06-12 06:52:00,
2013-06-12 02:57:00,66.6,64.2,29.95,WSW,248,0.0,0.0,92,0.00,,,0.00,meteohub,2013-06-12 06:57:00,
2013-06-12 03:02:00,66.4,64.0,29.95,WSW,248,0.0,0.0,92,0.00,,,0.00,meteohub,2013-06-12 07:02:00,
2013-06-12 03:07:00,66.4,64.2,29.95,WSW,248,0.0,0.0,93,0.00,,,0.00,meteohub,2013-06-12 07:07:00,
2013-06-12 03:12:00,66.6,64.4,29.95,WSW,248,0.0,0.0,93,0.00,,,0.00,meteohub,2013-06-12 07:12:00,
2013-06-12 03:17:00,66.7,64.9,29.95,WSW,248,0.0,2.0,94,0.00,,,0.00,meteohub,2013-06-12 07:17:00,
2013-06-12 03:22:00,66.6,64.8,29.95,WSW,248,0.0,2.0,94,0.00,,,0.00,meteohub,2013-06-12 07:22:00,
2013-06-12 03:27:00,66.6,65.1,29.95,WSW,248,0.0,2.0,95,0.00,,,0.00,meteohub,2013-06-12 07:27:00,
2013-06-12 03:32:00,66.6,65.1,29.95,WSW,248,0.0,0.0,95,0.00,,,0.00,meteohub,2013-06-12 07:32:00,
2013-06-12 03:37:00,66.4,64.9,29.95,WSW,248,0.0,0.0,95,0.00,,,0.00,meteohub,2013-06-12 07:37:00,
2013-06-12 03:42:00,66.4,64.9,29.92,WSW,248,0.0,0.0,95,0.00,,,0.00,meteohub,2013-06-12 07:42:00,
2013-06-12 03:47:00,66.4,65.1,29.92,SW,225,0.0,0.0,96,0.00,,,0.00,meteohub,2013-06-12 07:47:00,
2013-06-12 03:52:00,66.4,65.1,29.92,West,270,0.0,0.0,96,0.00,,,0.00,meteohub,2013-06-12 07:52:00,
2013-06-12 03:57:00,66.4,65.1,29.92,West,270,0.0,0.0,96,0.00,,,0.00,meteohub,2013-06-12 07:57:00,
2013-06-12 04:02:00,66.4,65.1,29.92,West,270,0.0,0.0,96,0.00,,,0.00,meteohub,2013-06-12 08:02:00,
2013-06-12 04:07:00,66.4,65.1,29.92,West,270,0.0,0.0,96,0.00,,,0.00,meteohub,2013-06-12 08:07:00,
2013-06-12 04:12:00,66.2,64.9,29.92,West,270,0.0,0.0,96,0.00,,,0.00,meteohub,2013-06-12 08:12:00,
2013-06-12 04:17:00,66.2,64.9,29.92,West,270,0.0,0.0,96,0.00,,,0.00,meteohub,2013-06-12 08:17:00,
2013-06-12 04:27:00,66.0,65.1,29.95,West,270,0.0,0.0,97,0.00,,,0.00,meteohub,2013-06-12 08:27:00,
2013-06-12 04:32:00,65.8,64.9,29.95,West,270,0.0,0.0,97,0.00,,,0.00,meteohub,2013-06-12 08:32:00,
2013-06-12 04:37:00,65.8,64.9,29.95,West,270,0.0,0.0,97,0.00,,,0.00,meteohub,2013-06-12 08:37:00,
2013-06-12 04:42:00,66.0,65.1,29.95,WSW,248,0.0,0.0,97,0.00,,,0.00,meteohub,2013-06-12 08:42:00,
2013-06-12 04:47:00,66.4,65.5,29.95,WNW,292,0.0,0.0,97,0.00,,,0.00,meteohub,2013-06-12 08:47:00,
2013-06-12 04:52:00,66.4,65.5,29.95,WNW,292,0.0,0.0,97,0.00,,,0.00,meteohub,2013-06-12 08:52:00,
2013-06-12 04:57:00,66.6,65.7,29.95,WNW,292,0.0,0.0,97,0.00,,,0.00,meteohub,2013-06-12 08:57:00,
2013-06-12 05:02:00,66.4,65.5,29.95,WNW,292,0.0,0.0,97,0.00,,,0.00,meteohub,2013-06-12 09:02:00,
2013-06-12 05:07:00,66.2,65.3,29.95,WNW,292,0.0,0.0,97,0.00,,,0.00,meteohub,2013-06-12 09:07:00,
2013-06-12 05:12:00,66.2,65.3,29.95,WNW,292,0.0,0.0,97,0.00,,,0.00,meteohub,2013-06-12 09:12:00,
2013-06-12 05:17:00,66.2,65.3,29.95,WNW,292,0.0,0.0,97,0.00,,,0.00,meteohub,2013-06-12 09:17:00,
2013-06-12 05:22:00,66.0,65.5,29.95,WNW,292,0.0,0.0,98,0.00,,,0.00,meteohub,2013-06-12 09:22:00,
2013-06-12 05:27:00,65.8,65.3,29.95,WNW,292,0.0,0.0,98,0.00,,,0.00,meteohub,2013-06-12 09:27:00,
2013-06-12 05:32:00,65.8,65.3,29.95,WNW,292,0.0,0.0,98,0.00,,,0.00,meteohub,2013-06-12 09:32:00,
2013-06-12 05:37:00,65.8,65.3,29.95,WSW,248,0.0,0.0,98,0.00,,,0.00,meteohub,2013-06-12 09:37:00,
2013-06-12 05:42:00,65.8,65.3,29.95,WSW,248,0.0,0.0,98,0.00,,,0.00,meteohub,2013-06-12 09:42:00,
2013-06-12 05:47:00,65.8,65.3,29.95,WSW,248,0.0,0.0,98,0.00,,,0.00,meteohub,2013-06-12 09:47:00,
2013-06-12 05:52:00,65.7,65.1,29.95,WSW,248,0.0,0.0,98,0.00,,,0.00,meteohub,2013-06-12 09:52:00,
2013-06-12 05:57:00,65.5,64.9,29.98,WSW,248,0.0,0.0,98,0.00,,,0.00,meteohub,2013-06-12 09:57:00,
2013-06-12 06:02:00,65.5,64.9,29.98,WSW,248,0.0,0.0,98,0.00,,,0.00,meteohub,2013-06-12 10:02:00,
2013-06-12 06:07:00,66.0,65.5,29.98,SW,225,2.0,0.0,98,0.00,,,0.00,meteohub,2013-06-12 10:07:00,
2013-06-12 06:12:00,66.2,65.7,29.98,SW,225,0.0,3.0,98,0.00,,,0.00,meteohub,2013-06-12 10:12:00,
2013-06-12 06:17:00,66.2,65.7,29.98,SW,225,0.0,3.0,98,0.00,,,0.00,meteohub,2013-06-12 10:17:00,
2013-06-12 06:22:00,66.2,65.7,29.98,SW,225,0.0,3.0,98,0.00,,,0.00,meteohub,2013-06-12 10:22:00,
2013-06-12 06:27:00,66.2,65.7,29.98,SW,225,0.0,0.0,98,0.00,,,0.00,meteohub,2013-06-12 10:27:00,
2013-06-12 06:37:00,66.4,65.8,29.98,SW,225,2.0,0.0,98,0.00,,,0.00,meteohub,2013-06-12 10:37:00,
2013-06-12 06:42:00,66.6,66.0,29.98,SW,225,0.0,3.0,98,0.00,,,0.00,meteohub,2013-06-12 10:42:00,
2013-06-12 06:47:00,66.7,66.2,29.98,SW,225,0.0,3.0,98,0.00,,,0.00,meteohub,2013-06-12 10:47:00,
2013-06-12 06:52:00,66.7,66.2,29.98,SW,225,0.0,3.0,98,0.00,,,0.00,meteohub,2013-06-12 10:52:00,
2013-06-12 06:57:00,66.7,66.2,29.98,NNE,22,0.0,3.0,98,0.00,,,0.00,meteohub,2013-06-12 10:57:00,
2013-06-12 07:02:00,66.7,66.2,29.98,NNE,22,0.0,0.0,98,0.00,,,0.00,meteohub,2013-06-12 11:02:00,
2013-06-12 07:07:00,66.7,66.2,29.98,NNE,22,0.0,0.0,98,0.00,,,0.00,meteohub,2013-06-12 11:07:00,
2013-06-12 07:12:00,67.3,66.7,29.98,SSW,202,3.0,0.0,98,0.00,,,0.00,meteohub,2013-06-12 11:12:00,
2013-06-12 07:17:00,67.5,66.9,29.98,SW,225,4.0,4.0,98,0.00,,,0.00,meteohub,2013-06-12 11:17:00,
2013-06-12 07:22:00,67.6,66.7,29.98,SW,225,4.0,4.0,97,0.00,,,0.00,meteohub,2013-06-12 11:22:00,
2013-06-12 07:27:00,67.8,66.6,29.98,SSW,202,4.0,4.0,96,0.00,,,0.00,meteohub,2013-06-12 11:27:00,
2013-06-12 07:32:00,68.0,66.2,29.98,SSW,202,3.0,4.0,94,0.00,,,0.00,meteohub,2013-06-12 11:32:00,
2013-06-12 07:37:00,68.0,65.8,29.98,SW,225,0.0,4.0,93,0.00,,,0.00,meteohub,2013-06-12 11:37:00,
2013-06-12 07:42:00,68.2,65.8,29.98,SW,225,2.0,4.0,92,0.00,,,0.00,meteohub,2013-06-12 11:42:00,
2013-06-12 07:47:00,68.4,65.3,29.98,SW,225,4.0,5.0,90,0.00,,,0.00,meteohub,2013-06-12 11:47:00,
2013-06-12 07:52:00,68.7,64.9,29.98,SW,225,2.0,5.0,88,0.00,,,0.00,meteohub,2013-06-12 11:52:00,
2013-06-12 07:57:00,68.9,64.9,29.98,SW,225,2.0,5.0,87,0.00,,,0.00,meteohub,2013-06-12 11:57:00,
2013-06-12 08:02:00,69.4,65.1,29.98,WSW,248,0.0,4.0,86,0.00,,,0.00,meteohub,2013-06-12 12:02:00,
2013-06-12 08:07:00,69.8,64.8,29.98,WSW,248,2.0,4.0,84,0.00,,,0.00,meteohub,2013-06-12 12:07:00,
2013-06-12 08:12:00,70.2,64.4,29.98,South,180,3.0,4.0,82,0.00,,,0.00,meteohub,2013-06-12 12:12:00,
2013-06-12 08:17:00,70.9,64.0,29.98,WSW,248,2.0,4.0,79,0.00,,,0.00,meteohub,2013-06-12 12:17:00,
2013-06-12 08:22:00,71.4,63.9,29.98,SW,225,3.0,4.0,77,0.00,,,0.00,meteohub,2013-06-12 12:22:00,
2013-06-12 08:27:00,72.0,62.8,29.98,SW,225,2.0,4.0,73,0.00,,,0.00,meteohub,2013-06-12 12:27:00,
2013-06-12 08:32:00,72.1,61.9,29.98,SSW,202,6.0,6.0,70,0.00,,,0.00,meteohub,2013-06-12 12:32:00,
2013-06-12 08:37:00,72.5,61.3,29.98,SSW,202,3.0,6.0,68,0.00,,,0.00,meteohub,2013-06-12 12:37:00,
2013-06-12 08:42:00,72.9,61.7,29.98,SW,225,4.0,6.0,68,0.00,,,0.00,meteohub,2013-06-12 12:42:00,
2013-06-12 08:47:00,73.2,62.1,29.98,SW,225,3.0,6.0,68,0.00,,,0.00,meteohub,2013-06-12 12:47:00,
2013-06-12 08:52:00,73.9,62.8,29.98,SW,225,4.0,5.0,68,0.00,,,0.00,meteohub,2013-06-12 12:52:00,
2013-06-12 08:57:00,74.1,62.1,29.98,SSW,202,3.0,5.0,66,0.00,,,0.00,meteohub,2013-06-12 12:57:00,
2013-06-12 09:02:00,75.0,63.0,29.98,SW,225,3.0,5.0,66,0.00,,,0.00,meteohub,2013-06-12 13:02:00,
2013-06-12 09:07:00,75.6,63.0,29.98,WSW,248,0.0,4.0,65,0.00,,,0.00,meteohub,2013-06-12 13:07:00,
2013-06-12 09:12:00,76.1,62.1,29.98,SW,225,6.0,6.0,62,0.00,,,0.00,meteohub,2013-06-12 13:12:00,
2013-06-12 09:17:00,76.6,60.8,29.98,SW,225,3.0,6.0,58,0.00,,,0.00,meteohub,2013-06-12 13:17:00,
2013-06-12 09:22:00,77.2,60.3,29.98,SW,225,6.0,7.0,56,0.00,,,0.00,meteohub,2013-06-12 13:22:00,
2013-06-12 09:27:00,77.9,61.0,29.98,South,180,3.0,7.0,56,0.00,,,0.00,meteohub,2013-06-12 13:27:00,
2013-06-12 09:32:00,78.6,61.2,29.98,SSW,202,3.0,7.0,55,0.00,,,0.00,meteohub,2013-06-12 13:32:00,
2013-06-12 09:37:00,79.2,60.1,29.98,SSE,158,3.0,7.0,52,0.00,,,0.00,meteohub,2013-06-12 13:37:00,
2013-06-12 09:42:00,79.0,58.1,29.98,WSW,248,5.0,7.0,49,0.00,,,0.00,meteohub,2013-06-12 13:42:00,
2013-06-12 09:47:00,79.5,58.6,29.98,SW,225,5.0,8.0,49,0.00,,,0.00,meteohub,2013-06-12 13:47:00,
2013-06-12 09:52:00,79.9,59.0,29.98,SSW,202,2.0,8.0,49,0.00,,,0.00,meteohub,2013-06-12 13:52:00,
2013-06-12 09:57:00,80.4,58.3,29.98,SSW,202,3.0,8.0,47,0.00,,,0.00,meteohub,2013-06-12 13:57:00,
2013-06-12 10:02:00,81.0,59.4,29.98,WNW,292,3.0,7.0,48,0.00,,,0.00,meteohub,2013-06-12 14:02:00,
2013-06-12 10:07:00,80.8,58.1,29.98,SSW,202,0.0,7.0,46,0.00,,,0.00,meteohub,2013-06-12 14:07:00,
2013-06-12 10:12:00,81.1,57.7,29.98,SW,225,6.0,8.0,45,0.00,,,0.00,meteohub,2013-06-12 14:12:00,
2013-06-12 10:17:00,81.7,60.1,29.98,SSW,202,2.0,9.0,48,0.00,,,0.00,meteohub,2013-06-12 14:17:00,
2013-06-12 10:22:00,81.7,58.3,29.98,SSW,202,4.0,9.0,45,0.00,,,0.00,meteohub,2013-06-12 14:22:00,
2013-06-12 10:27:00,82.2,58.1,29.95,WNW,292,3.0,9.0,44,0.00,,,0.00,meteohub,2013-06-12 14:27:00,
2013-06-12 10:32:00,83.1,59.5,29.95,WSW,248,3.0,8.0,45,0.00,,,0.00,meteohub,2013-06-12 14:32:00,
2013-06-12 10:37:00,82.8,59.2,29.95,WSW,248,6.0,8.0,45,0.00,,,0.00,meteohub,2013-06-12 14:37:00,
2013-06-12 10:42:00,83.5,59.9,29.95,SW,225,5.0,8.0,45,0.00,,,0.00,meteohub,2013-06-12 14:42:00,
2013-06-12 10:47:00,83.8,58.3,29.95,WSW,248,5.0,8.0,42,0.00,,,0.00,meteohub,2013-06-12 14:47:00,
2013-06-12 10:52:00,83.5,57.9,29.95,South,180,6.0,8.0,42,0.00,,,0.00,meteohub,2013-06-12 14:52:00,
2013-06-12 10:57:00,84.2,57.9,29.95,SW,225,3.0,8.0,41,0.00,,,0.00,meteohub,2013-06-12 14:57:00,
2013-06-12 11:02:00,85.1,58.8,29.95,ESE,112,4.0,8.0,41,0.00,,,0.00,meteohub,2013-06-12 15:02:00,
2013-06-12 11:07:00,86.0,58.1,29.95,SSW,202,6.0,8.0,39,0.00,,,0.00,meteohub,2013-06-12 15:07:00,
2013-06-12 11:12:00,85.3,57.6,29.95,WSW,248,8.0,9.0,39,0.00,,,0.00,meteohub,2013-06-12 15:12:00,
2013-06-12 11:17:00,85.1,58.1,29.95,SSW,202,3.0,9.0,40,0.00,,,0.00,meteohub,2013-06-12 15:17:00,
2013-06-12 11:22:00,85.3,57.6,29.95,SW,225,5.0,11.0,39,0.00,,,0.00,meteohub,2013-06-12 15:22:00,
2013-06-12 11:27:00,85.8,58.6,29.95,SSW,202,3.0,11.0,40,0.00,,,0.00,meteohub,2013-06-12 15:27:00,
2013-06-12 11:32:00,85.8,57.9,29.95,SSE,158,2.0,8.0,39,0.00,,,0.00,meteohub,2013-06-12 15:32:00,
2013-06-12 11:37:00,86.2,59.0,29.95,SW,225,3.0,8.0,40,0.00,,,0.00,meteohub,2013-06-12 15:37:00,
2013-06-12 11:42:00,85.8,58.6,29.95,SSW,202,4.0,8.0,40,0.00,,,0.00,meteohub,2013-06-12 15:42:00,
2013-06-12 11:47:00,84.9,57.2,29.95,SW,225,6.0,8.0,39,0.00,,,0.00,meteohub,2013-06-12 15:47:00,
2013-06-12 11:52:00,85.1,57.4,29.95,SSW,202,6.0,8.0,39,0.00,,,0.00,meteohub,2013-06-12 15:52:00,
2013-06-12 11:57:00,84.9,58.6,29.95,SW,225,8.0,8.0,41,0.00,,,0.00,meteohub,2013-06-12 15:57:00,
2013-06-12 12:02:00,84.6,58.3,29.95,SW,225,8.0,8.0,41,0.00,,,0.00,meteohub,2013-06-12 16:02:00,
2013-06-12 12:07:00,84.6,59.0,29.95,West,270,3.0,8.0,42,0.00,,,0.00,meteohub,2013-06-12 16:07:00,
2013-06-12 12:12:00,84.4,58.8,29.95,SW,225,3.0,8.0,42,0.00,,,0.00,meteohub,2013-06-12 16:12:00,
2013-06-12 12:17:00,84.9,59.9,29.95,West,270,4.0,8.0,43,0.00,,,0.00,meteohub,2013-06-12 16:17:00,
2013-06-12 12:22:00,85.3,59.5,29.95,SSW,202,3.0,8.0,42,0.00,,,0.00,meteohub,2013-06-12 16:22:00,
2013-06-12 12:27:00,85.8,58.6,29.95,WSW,248,4.0,8.0,40,0.00,,,0.00,meteohub,2013-06-12 16:27:00,
2013-06-12 12:37:00,86.5,58.6,29.95,WSW,248,3.0,8.0,39,0.00,,,0.00,meteohub,2013-06-12 16:37:00,
2013-06-12 12:42:00,86.0,57.4,29.95,SW,225,5.0,8.0,38,0.00,,,0.00,meteohub,2013-06-12 16:42:00,
2013-06-12 12:47:00,86.2,58.3,29.95,SW,225,4.0,10.0,39,0.00,,,0.00,meteohub,2013-06-12 16:47:00,
2013-06-12 12:52:00,86.2,59.0,29.95,SW,225,5.0,10.0,40,0.00,,,0.00,meteohub,2013-06-12 16:52:00,
2013-06-12 12:57:00,85.5,57.7,29.95,WSW,248,5.0,10.0,39,0.00,,,0.00,meteohub,2013-06-12 16:57:00,
2013-06-12 13:02:00,85.3,58.3,29.95,NNE,22,4.0,7.0,40,0.00,,,0.00,meteohub,2013-06-12 17:02:00,
2013-06-12 13:07:00,86.4,59.9,29.95,SSE,158,3.0,9.0,41,0.00,,,0.00,meteohub,2013-06-12 17:07:00,
2013-06-12 13:12:00,87.1,58.5,29.95,WSW,248,4.0,9.0,38,0.00,,,0.00,meteohub,2013-06-12 17:12:00,
2013-06-12 13:17:00,88.2,59.4,29.95,SSE,158,0.0,9.0,38,0.00,,,0.00,meteohub,2013-06-12 17:17:00,
2013-06-12 13:22:00,89.2,60.3,29.95,NE,45,3.0,6.0,38,0.00,,,0.00,meteohub,2013-06-12 17:22:00,
2013-06-12 13:27:00,89.8,59.2,29.95,NNW,338,0.0,6.0,36,0.00,,,0.00,meteohub,2013-06-12 17:27:00,
2013-06-12 13:32:00,88.9,58.5,29.95,ENE,68,3.0,8.0,36,0.00,,,0.00,meteohub,2013-06-12 17:32:00,
2013-06-12 13:37:00,89.6,57.6,29.95,SSE,158,3.0,8.0,34,0.00,,,0.00,meteohub,2013-06-12 17:37:00,
2013-06-12 13:42:00,90.1,57.9,29.95,SSE,158,4.0,8.0,34,0.00,,,0.00,meteohub,2013-06-12 17:42:00,
2013-06-12 13:47:00,90.1,59.5,29.95,SSW,202,4.0,6.0,36,0.00,,,0.00,meteohub,2013-06-12 17:47:00,
2013-06-12 13:52:00,90.0,58.6,29.95,West,270,3.0,6.0,35,0.00,,,0.00,meteohub,2013-06-12 17:52:00,
2013-06-12 13:57:00,90.0,57.7,29.95,WNW,292,4.0,6.0,34,0.00,,,0.00,meteohub,2013-06-12 17:57:00,
2013-06-12 14:02:00,90.1,59.5,29.95,WSW,248,4.0,8.0,36,0.00,,,0.00,meteohub,2013-06-12 18:02:00,
2013-06-12 14:07:00,88.9,58.5,29.95,East,90,2.0,8.0,36,0.00,,,0.00,meteohub,2013-06-12 18:07:00,
2013-06-12 14:12:00,89.4,60.4,29.95,ESE,112,4.0,9.0,38,0.00,,,0.00,meteohub,2013-06-12 18:12:00,
2013-06-12 14:17:00,89.2,61.0,29.95,WSW,248,6.0,9.0,39,0.00,,,0.00,meteohub,2013-06-12 18:17:00,
2013-06-12 14:22:00,90.0,60.3,29.95,SW,225,8.0,9.0,37,0.00,,,0.00,meteohub,2013-06-12 18:22:00,
2013-06-12 14:27:00,89.6,60.6,29.95,SW,225,5.0,10.0,38,0.00,,,0.00,meteohub,2013-06-12 18:27:00,
2013-06-12 14:32:00,89.2,58.8,29.95,SW,225,6.0,10.0,36,0.00,,,0.00,meteohub,2013-06-12 18:32:00,
2013-06-12 14:37:00,90.3,61.3,29.95,WNW,292,3.0,12.0,38,0.00,,,0.00,meteohub,2013-06-12 18:37:00,
2013-06-12 14:42:00,91.2,62.1,29.92,South,180,3.0,12.0,38,0.00,,,0.00,meteohub,2013-06-12 18:42:00,
2013-06-12 14:47:00,92.5,62.4,29.92,South,180,3.0,12.0,37,0.00,,,0.00,meteohub,2013-06-12 18:47:00,
2013-06-12 14:52:00,91.4,60.6,29.92,ESE,112,3.0,7.0,36,0.00,,,0.00,meteohub,2013-06-12 18:52:00,
2013-06-12 14:57:00,90.7,61.5,29.92,West,270,4.0,8.0,38,0.00,,,0.00,meteohub,2013-06-12 18:57:00,
2013-06-12 15:02:00,88.7,60.6,29.92,ENE,68,3.0,8.0,39,0.00,,,0.00,meteohub,2013-06-12 19:02:00,
2013-06-12 15:07:00,90.1,61.2,29.92,WNW,292,3.0,8.0,38,0.00,,,0.00,meteohub,2013-06-12 19:07:00,
2013-06-12 15:12:00,89.6,60.6,29.92,WSW,248,6.0,8.0,38,0.00,,,0.00,meteohub,2013-06-12 19:12:00,
2013-06-12 15:17:00,90.3,61.3,29.92,NNW,338,4.0,7.0,38,0.00,,,0.00,meteohub,2013-06-12 19:17:00,
2013-06-12 15:22:00,90.0,58.6,29.92,SSW,202,8.0,8.0,35,0.00,,,0.00,meteohub,2013-06-12 19:22:00,
2013-06-12 15:27:00,90.7,60.1,29.92,SW,225,3.0,8.0,36,0.00,,,0.00,meteohub,2013-06-12 19:27:00,
2013-06-12 15:32:00,90.9,60.3,29.92,SW,225,3.0,8.0,36,0.00,,,0.00,meteohub,2013-06-12 19:32:00,
2013-06-12 15:37:00,91.8,59.4,29.92,WSW,248,8.0,8.0,34,0.00,,,0.00,meteohub,2013-06-12 19:37:00,
2013-06-12 15:47:00,92.5,59.2,29.92,SSE,158,4.0,8.0,33,0.00,,,0.00,meteohub,2013-06-12 19:47:00,
2013-06-12 15:52:00,92.3,59.9,29.92,SW,225,7.0,8.0,34,0.00,,,0.00,meteohub,2013-06-12 19:52:00,
2013-06-12 15:57:00,92.8,59.5,29.92,WSW,248,3.0,9.0,33,0.00,,,0.00,meteohub,2013-06-12 19:57:00,
2013-06-12 16:02:00,92.5,60.8,29.92,SW,225,3.0,9.0,35,0.00,,,0.00,meteohub,2013-06-12 20:02:00,
2013-06-12 16:12:00,90.0,60.3,29.92,SW,225,6.0,8.0,37,0.00,,,0.00,meteohub,2013-06-12 20:12:00,
2013-06-12 16:17:00,89.6,61.3,29.92,SW,225,3.0,8.0,39,0.00,,,0.00,meteohub,2013-06-12 20:17:00,
2013-06-12 16:22:00,90.5,62.2,29.92,SSW,202,5.0,8.0,39,0.00,,,0.00,meteohub,2013-06-12 20:22:00,
2013-06-12 16:27:00,91.9,63.5,29.92,SSE,158,0.0,8.0,39,0.00,,,0.00,meteohub,2013-06-12 20:27:00,
2013-06-12 16:32:00,91.8,63.3,29.92,SSW,202,5.0,8.0,39,0.00,,,0.00,meteohub,2013-06-12 20:32:00,
2013-06-12 16:37:00,91.6,62.4,29.92,SSE,158,3.0,7.0,38,0.00,,,0.00,meteohub,2013-06-12 20:37:00,
2013-06-12 16:42:00,92.5,63.1,29.89,SSE,158,0.0,6.0,38,0.00,,,0.00,meteohub,2013-06-12 20:42:00,
2013-06-12 16:47:00,93.4,61.7,29.89,SSE,158,3.0,6.0,35,0.00,,,0.00,meteohub,2013-06-12 20:47:00,
2013-06-12 16:52:00,93.6,61.7,29.89,WSW,248,3.0,6.0,35,0.00,,,0.00,meteohub,2013-06-12 20:52:00,
2013-06-12 16:57:00,92.1,59.7,29.89,SW,225,6.0,6.0,34,0.00,,,0.00,meteohub,2013-06-12 20:57:00,
2013-06-12 17:02:00,92.1,60.4,29.89,WSW,248,4.0,6.0,35,0.00,,,0.00,meteohub,2013-06-12 21:02:00,
2013-06-12 17:07:00,92.8,60.3,29.89,SSW,202,4.0,6.0,34,0.00,,,0.00,meteohub,2013-06-12 21:07:00,
2013-06-12 17:12:00,92.3,62.2,29.89,SSW,202,5.0,6.0,37,0.00,,,0.00,meteohub,2013-06-12 21:12:00,
2013-06-12 17:17:00,91.4,61.5,29.89,SE,135,4.0,8.0,37,0.00,,,0.00,meteohub,2013-06-12 21:17:00,
2013-06-12 17:22:00,91.9,61.9,29.89,SSW,202,2.0,8.0,37,0.00,,,0.00,meteohub,2013-06-12 21:22:00,
2013-06-12 17:27:00,90.9,61.7,29.89,SSW,202,3.0,8.0,38,0.00,,,0.00,meteohub,2013-06-12 21:27:00,
2013-06-12 17:32:00,90.9,61.7,29.89,SW,225,4.0,8.0,38,0.00,,,0.00,meteohub,2013-06-12 21:32:00,
2013-06-12 17:37:00,91.2,61.3,29.89,SW,225,5.0,8.0,37,0.00,,,0.00,meteohub,2013-06-12 21:37:00,
2013-06-12 17:42:00,91.8,62.6,29.89,WSW,248,3.0,8.0,38,0.00,,,0.00,meteohub,2013-06-12 21:42:00,
2013-06-12 17:47:00,91.0,61.9,29.89,NE,45,4.0,6.0,38,0.00,,,0.00,meteohub,2013-06-12 21:47:00,
2013-06-12 17:52:00,91.6,62.4,29.89,West,270,3.0,6.0,38,0.00,,,0.00,meteohub,2013-06-12 21:52:00,
2013-06-12 17:57:00,90.5,61.3,29.89,WSW,248,4.0,6.0,38,0.00,,,0.00,meteohub,2013-06-12 21:57:00,
2013-06-12 18:02:00,90.0,61.7,29.89,South,180,4.0,8.0,39,0.00,,,0.00,meteohub,2013-06-12 22:02:00,
2013-06-12 18:07:00,89.1,61.5,29.89,WSW,248,6.0,8.0,40,0.00,,,0.00,meteohub,2013-06-12 22:07:00,
2013-06-12 18:12:00,88.5,62.4,29.89,WNW,292,0.0,8.0,42,0.00,,,0.00,meteohub,2013-06-12 22:12:00,
2013-06-12 18:17:00,88.0,62.6,29.89,NW,315,2.0,6.0,43,0.00,,,0.00,meteohub,2013-06-12 22:17:00,
2013-06-12 18:22:00,87.6,63.0,29.89,SW,225,0.0,6.0,44,0.00,,,0.00,meteohub,2013-06-12 22:22:00,
2013-06-12 18:27:00,87.6,64.2,29.89,SW,225,3.0,4.0,46,0.00,,,0.00,meteohub,2013-06-12 22:27:00,
2013-06-12 18:32:00,87.4,63.5,29.89,South,180,0.0,5.0,45,0.00,,,0.00,meteohub,2013-06-12 22:32:00,
2013-06-12 18:37:00,87.6,65.5,29.89,South,180,0.0,5.0,48,0.00,,,0.00,meteohub,2013-06-12 22:37:00,
2013-06-12 18:42:00,87.4,65.3,29.89,ESE,112,0.0,5.0,48,0.00,,,0.00,meteohub,2013-06-12 22:42:00,
2013-06-12 18:47:00,87.1,64.9,29.89,South,180,0.0,3.0,48,0.00,,,0.00,meteohub,2013-06-12 22:47:00,
2013-06-12 18:52:00,87.1,67.3,29.89,South,180,0.0,0.0,52,0.00,,,0.00,meteohub,2013-06-12 22:52:00,
2013-06-12 18:57:00,86.7,65.8,29.89,South,180,0.0,0.0,50,0.00,,,0.00,meteohub,2013-06-12 22:57:00,
2013-06-12 19:02:00,86.5,67.5,29.89,South,180,0.0,0.0,53,0.00,,,0.00,meteohub,2013-06-12 23:02:00,
2013-06-12 19:07:00,86.4,67.8,29.89,South,180,0.0,0.0,54,0.00,,,0.00,meteohub,2013-06-12 23:07:00,
2013-06-12 19:12:00,86.0,67.5,29.89,South,180,0.0,0.0,54,0.00,,,0.00,meteohub,2013-06-12 23:12:00,
2013-06-12 19:17:00,85.6,68.2,29.89,South,180,0.0,0.0,56,0.00,,,0.00,meteohub,2013-06-12 23:17:00,
2013-06-12 19:22:00,85.1,67.1,29.89,East,90,0.0,3.0,55,0.00,,,0.00,meteohub,2013-06-12 23:22:00,
2013-06-12 19:27:00,84.7,67.3,29.89,East,90,0.0,3.0,56,0.00,,,0.00,meteohub,2013-06-12 23:27:00,
2013-06-12 19:32:00,84.6,68.2,29.89,East,90,0.0,3.0,58,0.00,,,0.00,meteohub,2013-06-12 23:32:00,
2013-06-12 19:37:00,84.2,67.8,29.89,SE,135,0.0,0.0,58,0.00,,,0.00,meteohub,2013-06-12 23:37:00,
2013-06-12 19:42:00,84.0,68.2,29.89,SE,135,0.0,0.0,59,0.00,,,0.00,meteohub,2013-06-12 23:42:00,
2013-06-12 19:47:00,83.8,68.0,29.89,WNW,292,0.0,3.0,59,0.00,,,0.00,meteohub,2013-06-12 23:47:00,
2013-06-12 19:52:00,83.5,67.1,29.89,WNW,292,0.0,3.0,58,0.00,,,0.00,meteohub,2013-06-12 23:52:00,
2013-06-12 19:57:00,83.5,68.5,29.89,WNW,292,0.0,3.0,61,0.00,,,0.00,meteohub,2013-06-12 23:57:00,
2013-06-12 20:02:00,83.1,67.8,29.89,WNW,292,0.0,0.0,60,0.00,,,0.00,meteohub,2013-06-13 00:02:00,
2013-06-12 20:07:00,82.9,68.2,29.89,WNW,292,0.0,0.0,61,0.00,,,0.00,meteohub,2013-06-13 00:07:00,
2013-06-12 20:12:00,82.8,68.0,29.89,WNW,292,0.0,0.0,61,0.00,,,0.00,meteohub,2013-06-13 00:12:00,
2013-06-12 20:17:00,82.4,68.5,29.89,WNW,292,0.0,0.0,63,0.00,,,0.00,meteohub,2013-06-13 00:17:00,
2013-06-12 20:22:00,82.0,68.7,29.89,WNW,292,0.0,0.0,64,0.00,,,0.00,meteohub,2013-06-13 00:22:00,
2013-06-12 20:27:00,81.9,68.5,29.89,WNW,292,0.0,0.0,64,0.00,,,0.00,meteohub,2013-06-13 00:27:00,
2013-06-12 20:32:00,81.3,68.4,29.89,WNW,292,0.0,0.0,65,0.00,,,0.00,meteohub,2013-06-13 00:32:00,
2013-06-12 20:37:00,81.1,68.7,29.89,WNW,292,0.0,0.0,66,0.00,,,0.00,meteohub,2013-06-13 00:37:00,
2013-06-12 20:42:00,80.8,68.7,29.89,WNW,292,0.0,0.0,67,0.00,,,0.00,meteohub,2013-06-13 00:42:00,
2013-06-12 20:47:00,80.6,69.1,29.89,WNW,292,0.0,0.0,68,0.00,,,0.00,meteohub,2013-06-13 00:47:00,
2013-06-12 20:52:00,80.4,68.9,29.89,WNW,292,0.0,0.0,68,0.00,,,0.00,meteohub,2013-06-13 00:52:00,
2013-06-12 20:57:00,80.1,68.9,29.89,WNW,292,0.0,0.0,69,0.00,,,0.00,meteohub,2013-06-13 00:57:00,
2013-06-12 21:02:00,79.9,68.4,29.89,WNW,292,0.0,0.0,68,0.00,,,0.00,meteohub,2013-06-13 01:02:00,
2013-06-12 21:07:00,79.7,68.5,29.89,WNW,292,0.0,0.0,69,0.00,,,0.00,meteohub,2013-06-13 01:07:00,
2013-06-12 21:12:00,79.5,68.9,29.89,WNW,292,0.0,0.0,70,0.00,,,0.00,meteohub,2013-06-13 01:12:00,
2013-06-12 21:17:00,79.3,69.1,29.89,WNW,292,0.0,0.0,71,0.00,,,0.00,meteohub,2013-06-13 01:17:00,
2013-06-12 21:22:00,79.2,68.9,29.89,WNW,292,0.0,0.0,71,0.00,,,0.00,meteohub,2013-06-13 01:22:00,
2013-06-12 21:27:00,79.0,68.7,29.89,WNW,292,0.0,0.0,71,0.00,,,0.00,meteohub,2013-06-13 01:27:00,
2013-06-12 21:32:00,78.8,69.1,29.89,WNW,292,0.0,0.0,72,0.00,,,0.00,meteohub,2013-06-13 01:32:00,
2013-06-12 21:37:00,78.6,68.9,29.89,WNW,292,0.0,0.0,72,0.00,,,0.00,meteohub,2013-06-13 01:37:00,
2013-06-12 21:42:00,78.4,69.1,29.89,WNW,292,0.0,0.0,73,0.00,,,0.00,meteohub,2013-06-13 01:42:00,
2013-06-12 21:47:00,78.3,68.9,29.89,WNW,292,0.0,0.0,73,0.00,,,0.00,meteohub,2013-06-13 01:47:00,
2013-06-12 21:52:00,78.1,69.1,29.89,WNW,292,0.0,0.0,74,0.00,,,0.00,meteohub,2013-06-13 01:52:00,
2013-06-12 21:57:00,78.1,69.4,29.89,WNW,292,0.0,0.0,75,0.00,,,0.00,meteohub,2013-06-13 01:57:00,
2013-06-12 22:02:00,77.9,69.3,29.89,WNW,292,0.0,0.0,75,0.00,,,0.00,meteohub,2013-06-13 02:02:00,
2013-06-12 22:07:00,77.7,69.6,29.89,WNW,292,0.0,0.0,76,0.00,,,0.00,meteohub,2013-06-13 02:07:00,
2013-06-12 22:12:00,77.7,69.6,29.89,WNW,292,0.0,0.0,76,0.00,,,0.00,meteohub,2013-06-13 02:12:00,
2013-06-12 22:17:00,77.7,69.6,29.89,WNW,292,0.0,0.0,76,0.00,,,0.00,meteohub,2013-06-13 02:17:00,
2013-06-12 22:22:00,77.5,69.4,29.89,WNW,292,0.0,0.0,76,0.00,,,0.00,meteohub,2013-06-13 02:22:00,
2013-06-12 22:27:00,77.5,69.8,29.89,WNW,292,0.0,0.0,77,0.00,,,0.00,meteohub,2013-06-13 02:27:00,
2013-06-12 22:32:00,77.4,69.6,29.89,WNW,292,0.0,0.0,77,0.00,,,0.00,meteohub,2013-06-13 02:32:00,
2013-06-12 22:37:00,77.2,69.4,29.89,WNW,292,0.0,0.0,77,0.00,,,0.00,meteohub,2013-06-13 02:37:00,
2013-06-12 22:47:00,77.0,69.6,29.89,WNW,292,0.0,0.0,78,0.00,,,0.00,meteohub,2013-06-13 02:47:00,
2013-06-12 22:52:00,76.8,69.8,29.89,WNW,292,0.0,0.0,79,0.00,,,0.00,meteohub,2013-06-13 02:52:00,
2013-06-12 22:57:00,76.5,69.4,29.89,WNW,292,0.0,0.0,79,0.00,,,0.00,meteohub,2013-06-13 02:57:00,
2013-06-12 23:02:00,76.5,69.8,29.89,WNW,292,0.0,0.0,80,0.00,,,0.00,meteohub,2013-06-13 03:02:00,
2013-06-12 23:07:00,76.3,69.6,29.89,WNW,292,0.0,0.0,80,0.00,,,0.00,meteohub,2013-06-13 03:07:00,
2013-06-12 23:12:00,76.3,70.0,29.89,WNW,292,0.0,0.0,81,0.00,,,0.00,meteohub,2013-06-13 03:12:00,
2013-06-12 23:17:00,76.1,70.2,29.89,WNW,292,0.0,0.0,82,0.00,,,0.00,meteohub,2013-06-13 03:17:00,
2013-06-12 23:22:00,76.1,70.5,29.89,WNW,292,0.0,0.0,83,0.00,,,0.00,meteohub,2013-06-13 03:22:00,
2013-06-12 23:27:00,75.9,70.3,29.89,WNW,292,0.0,0.0,83,0.00,,,0.00,meteohub,2013-06-13 03:27:00,
2013-06-12 23:32:00,75.9,70.7,29.89,WNW,292,0.0,0.0,84,0.00,,,0.00,meteohub,2013-06-13 03:32:00,
2013-06-12 23:37:00,75.9,70.7,29.89,WNW,292,0.0,0.0,84,0.00,,,0.00,meteohub,2013-06-13 03:37:00,
2013-06-12 23:42:00,75.9,71.1,29.89,WNW,292,0.0,0.0,85,0.00,,,0.00,meteohub,2013-06-13 03:42:00,
2013-06-12 23:47:00,75.9,71.1,29.89,WNW,292,0.0,0.0,85,0.00,,,0.00,meteohub,2013-06-13 03:47:00,
2013-06-12 23:52:00,75.9,71.4,29.89,WNW,292,0.0,0.0,86,0.00,,,0.00,meteohub,2013-06-13 03:52:00,
2013-06-12 23:57:00,75.9,71.4,29.89,WNW,292,0.0,0.0,86,0.00,,,0.00,meteohub,2013-06-13 03:57:00,